Location: Autheux
(50.1420°N, 2.2307°E)
Time: 08:23:41
(UTC+00:00)

Daily predictions for brighter satellites

Satellite Brightness Start Highest point End
(mag) Time Altitude Azimuth Time Altitude Azimuth Time Altitude Azimuth
COSMOS 2406 4.0 20:17:00 10° NNW 20:22:22 41° NE 20:27:43 10° ESE
GP-B 4.2 20:24:05 10° N 20:28:19 47° W 20:32:32 10° SSW
IRS-1A Rocket 4.4 20:23:39 10° SSE 20:29:22 75° ENE 20:35:14 10° NNW
Cosmos 1606 3.1 20:27:05 10° NNW 20:30:34 58° W 20:34:01 10° S
Cosmos 2298 Rocket 4.0 20:26:26 10° SSW 20:31:46 81° ESE 20:37:07 10° NNE
MetOp-B 4.2 20:27:46 10° SSE 20:33:08 86° WSW 20:38:33 10° NNW
Meteor 1-11 4.5 20:30:27 10° SSW 20:36:09 78° WNW 20:41:48 10° N
USA 307 2.7 20:33:53 10° WNW 20:37:49 80° NNE 20:41:35 10° ESE
Cosmos 1125 Rocket 4.5 20:34:57 10° SW 20:40:07 53° WNW 20:45:19 10° NNE
CZ-4 R/B 4.4 20:39:07 10° WSW 20:40:35 12° W 20:42:04 10° WNW
CZ-4C R/B 3.4 20:34:33 10° NW 20:41:09 56° NE 20:49:17 10° ESE
Cosmos 1833 Rocket 3.7 20:36:20 10° NW 20:41:41 44° WSW 20:47:00 10° S
Cosmos 1140 Rocket 4.5 20:38:25 10° N 20:43:07 34° NE 20:47:48 10° ESE
Cosmos 1536 Rocket 3.8 20:39:32 10° S 20:43:42 50° E 20:47:53 10° NNE
Cosmos 2366 rocket 4.1 20:37:45 10° S 20:43:45 59° E 20:49:47 10° NNE
ULPM Upper Stage 2.8 20:40:10 10° NW 20:44:33 82° SW 20:48:42 11° SE
Cosmos 1269 Rocket 4.2 20:39:40 10° NNW 20:44:58 67° ENE 20:50:09 10° SSE
NOSS 3-1 (A) 3.4 20:42:56 10° S 20:47:32 41° ESE 20:52:57 10° NE
SL-8 Rocket 4.0 20:42:12 10° S 20:48:27 73° E 20:54:47 10° NNE
ATLAS 5 CENTAUR R/B 4.3 20:48:35 10° NW 20:50:50 15° NNW 20:53:17 10° NNE
ERS-1 Rocket 3.1 20:50:23 10° SSE 20:55:24 82° WSW 21:00:26 10° NNW
Cosmos 2084 Rocket 4.2 20:58:48 10° WNW 21:02:30 38° SW 21:05:50 12° SSE
Cosmos 2058 Rocket 4.5 21:00:09 10° NNE 21:03:45 25° ENE 21:06:45 13° ESE
Okean O Rocket 4.1 21:02:33 10° SW 21:05:37 19° W 21:08:41 10° NW
Gbstr 26 Del rocket 3.3 21:03:24 10° WNW 21:07:53 84° SSW 21:13:13 11° ESE
Landsat 4 3.9 21:05:30 16° SE 21:08:01 47° ENE 21:11:21 10° N
Lacrosse 5 3.3 21:04:33 10° WNW 21:09:18 38° N 21:14:02 10° ENE
Cosmos 2082 Rocket 2.2 21:07:19 10° NNW 21:12:57 81° WSW 21:17:46 14° SSE
USA 305 2.9 21:12:33 10° WNW 21:16:08 44° SW 21:18:10 20° SSE
Cosmos 2369 Rocket 3.8 21:15:09 13° ESE 21:17:06 16° E 21:20:17 10° ENE
ATLAS 3B R/B 2.9 21:10:07 10° SSW 21:17:09 62° ESE 21:24:41 10° NE
USA 229 DEB 4.4 21:13:01 11° SSE 21:17:52 27° ESE 21:23:16 10° ENE
USA 229 4.4 21:13:13 11° SSE 21:17:58 27° ESE 21:23:21 10° ENE
Cosmos 1943 Rocket 2.1 21:13:25 10° SSW 21:19:01 71° ESE 21:24:37 10° NNE
NOSS 8 (H) 4.3 21:16:25 10° NW 21:19:28 82° SW 21:21:58 19° SE
Spot 2 Rocket 3.7 21:14:27 10° S 21:19:30 69° WSW 21:24:36 10° NNW
Cosmos 2278 Rocket 2.4 21:14:39 10° SSW 21:20:19 79° WNW 21:26:02 10° NNE
Terra 2.5 21:20:51 10° S 21:25:26 51° W 21:30:04 10° NNW
Lacrosse 4 Rocket 3.4 21:28:41 11° E 21:28:41 11° E 21:29:49 10° E
SPOT 3 Rocket 3.9 21:28:25 12° S 21:33:09 64° WSW 21:38:22 10° NNW
Cosmos 2218 Rocket 4.3 21:27:09 10° SSW 21:33:17 68° WNW 21:39:30 10° N
USA 215 3.5 21:28:45 17° SE 21:33:54 57° SW 21:40:23 10° WNW
Cosmos 2251 Rocket 4.0 21:29:39 10° NNW 21:34:52 50° ENE 21:38:33 19° SE
USA 290 3.6 21:32:15 10° SW 21:35:14 40° WNW 21:38:15 10° NNE
Cosmos 1461 4.4 21:34:14 10° NNW 21:37:28 26° NE 21:40:41 10° E
MOS 1 Rocket 4.4 21:35:20 10° SSW 21:39:25 35° W 21:43:23 10° NNW
Cosmos 1238 Rocket 3.9 21:37:31 10° N 21:41:07 35° ENE 21:43:23 21° SE
ARIANE 5 R/B 3.7 21:39:29 18° ESE 21:42:09 34° ENE 21:46:13 10° N
Cosmos 1812 2.4 21:38:40 10° N 21:42:14 86° E 21:44:10 25° SSE
Cosmos 1892 Rocket 3.6 21:39:29 19° S 21:42:35 61° E 21:46:57 10° NNE
SL-8 R/B 4.0 21:38:53 10° SW 21:43:26 44° SSE 21:48:00 10° E
Cosmos 192 4.3 21:38:40 10° S 21:43:29 66° ESE 21:48:26 10° NNE
Iridium 82 4.4 21:45:12 24° S 21:47:12 76° E 21:50:39 10° N
Lacrosse 5 rocket 1.8 21:46:15 25° S 21:47:31 31° SE 21:50:57 10° ENE
Ariane Rocket 3.9 21:43:06 11° S 21:47:39 44° W 21:52:31 10° NNW
Landsat 5 3.5 21:47:58 10° NNE 21:52:21 73° ESE 21:55:18 20° S
BREEZE-M DEB (TANK) 3.1 21:49:51 10° W 21:52:23 69° S 21:57:58 10° ESE
ISS -2.0 21:50:02 10° W 21:52:28 19° SW 21:53:03 18° SSW
Cosmos 1726 Rocket 3.8 21:49:35 10° NNW 21:53:52 64° W 21:56:43 20° S
Cosmos 1606 Rocket 4.3 21:50:56 10° NNW 21:55:04 46° W 21:58:17 16° SSW
Cosmos 1378 4.4 21:52:29 10° NNE 21:55:06 22° ENE 21:55:59 20° E
NOSS 3-1 (C) 4.4 21:50:33 10° WSW 21:55:31 46° NNW 22:01:37 10° NE
SL-27 R/B 4.4 21:54:48 10° NNE 21:56:16 13° NE 21:57:18 11° ENE
Cosmos 2058 2.9 21:55:22 26° SSE 21:57:32 62° E 22:01:35 10° NNE
Geosat 4.1 21:57:07 10° NE 22:02:05 57° ESE 22:05:42 18° S
Cosmos 1821 Rocket 4.4 21:57:23 10° SSW 22:03:41 67° WNW 22:10:05 10° N
Cosmos 1727 Rocket 4.5 21:57:39 10° NNW 22:03:50 58° W 22:09:01 15° SSW
Cosmos 1656 Rocket 4.0 22:01:48 22° S 22:04:59 46° ESE 22:10:17 10° NE
COSMOS 2406 4.0 22:01:23 10° NW 22:06:42 42° WSW 22:10:26 18° S
CENTAUR R/B 3.7 21:59:31 10° NW 22:07:18 58° NE 22:16:06 11° ESE
USA 307 3.7 22:07:25 10° W 22:10:43 27° SW 22:11:24 25° SSW
Cosmos 1666 4.4 22:14:56 15° E 22:15:02 15° E 22:17:07 10° NE
Alouette 2 Rocket 4.2 22:12:52 23° S 22:15:55 78° E 22:23:03 10° NNE
MetOp-A 4.1 22:14:52 23° SSW 22:17:15 48° WSW 22:21:12 10° NNW
Cosmos 2285 Rocket 4.2 22:10:50 10° NNW 22:17:16 68° ENE 22:21:12 25° SE
Cosmos 407 Rocket 3.6 22:15:45 10° NNW 22:20:55 66° WSW 22:23:41 28° S
Cosmos 1500 4.3 22:24:14 24° E 22:24:23 24° E 22:27:10 10° NE
Cosmos 1140 Rocket 4.3 22:20:08 10° NW 22:24:56 41° WSW 22:27:48 22° SSW
COSMOS 2455 3.2 22:19:01 10° NNW 22:25:02 61° NE 22:29:02 21° ESE
Cosmos 1605 Rocket 4.2 22:22:38 27° SSE 22:25:51 53° E 22:31:51 10° NNE
CZ-4C R/B 3.4 22:22:54 10° NW 22:29:52 54° WSW 22:34:57 24° S
Cosmos-2242 2.8 22:31:31 10° N 22:35:45 86° E 22:37:13 40° SSE
Cosmos 1371 Rocket 4.4 22:33:41 31° SSE 22:35:45 47° ESE 22:40:52 10° NNE
ATLAS 5 CENTAUR R/B 4.4 22:33:32 10° NNW 22:36:12 16° NNE 22:39:11 10° NE
PSLV R/B 4.0 22:33:11 10° NNE 22:37:08 55° E 22:38:11 41° SSE
Cosmos 1271 Rocket 2.5 22:35:59 43° S 22:37:09 83° ESE 22:40:59 10° NNE
USA 281 4.4 22:31:51 10° ESE 22:37:36 36° NE 22:43:28 10° NNW
NOSS 3-1 (A) 4.3 22:33:13 10° WSW 22:38:15 48° NNW 22:44:23 10° NE
Exosat Rocket 3.6 22:34:22 10° NNW 22:39:43 72° ENE 22:42:08 31° SE
Cosmos 1833 4.4 22:35:19 10° NNW 22:41:01 68° ENE 22:44:09 28° SE
Cosmos 2058 Rocket 4.0 22:37:45 10° NNW 22:41:49 39° W 22:43:57 23° SW
CZ-2C R/B 3.7 22:37:44 10° NNE 22:42:26 87° WNW 22:44:50 29° SSW
Cosmos 2297 3.6 22:38:58 21° SSW 22:42:55 81° ESE 22:48:39 10° NNE
Cosmos 44 Rocket 4.4 22:46:38 27° SE 22:47:04 28° ESE 22:51:19 10° ENE
SJ 16-02 3.6 22:48:34 10° N 22:51:36 18° NE 22:54:38 10° E
Cosmos 1812 Rocket 3.5 22:47:52 10° N 22:52:21 79° ENE 22:53:51 41° SSE
Lacrosse 5 2.3 22:47:55 10° NW 22:52:57 62° NNE 22:57:14 14° ESE
Gbstr 26 Del rocket 4.4 22:49:54 10° W 22:54:19 33° SW 22:55:25 30° SSW
Cosmos 2082 Rocket 4.4 22:53:13 10° WNW 22:56:07 14° W 22:58:59 10° SW
Cosmos 1602 Rocket 3.5 22:54:51 43° SSE 22:56:08 69° E 23:00:26 10° NNE
Cosmos 1954 Rocket 4.0 22:54:12 10° NNW 22:59:22 75° WSW 23:01:25 37° S
Gblst 52 Del rocket 4.0 22:54:03 10° WSW 22:59:44 76° SSE 23:05:13 10° ENE
Meteor 2-3 Rocket 3.7 22:56:57 30° S 22:59:53 89° E 23:05:34 10° NNE
Cosmos 2369 Rocket 2.1 22:56:53 25° SSW 23:00:15 86° ESE 23:05:55 10° NNE
Cosmos 1782 3.4 22:57:18 10° NNW 23:00:56 44° W 23:01:56 35° SW
Cosmos 1943 Rocket 4.2 22:58:31 10° WSW 23:03:17 27° NW 23:08:02 10° NNE
NOSS 3-2 (A) 4.2 22:56:10 10° NW 23:03:17 70° NE 23:10:30 15° SE
Lacrosse 4 Rocket 1.2 23:04:32 39° SSW 23:05:58 90° SSW 23:10:09 10° NE
USA 81 4.1 23:00:51 10° N 23:06:07 73° W 23:08:23 35° S
Cosmos 1624 Rocket 3.9 23:05:33 33° SSW 23:07:55 81° ESE 23:13:13 10° NNE
USA 229 DEB 3.7 23:01:52 10° SW 23:08:04 76° NW 23:15:00 10° NE
USA 229 3.7 23:01:59 10° SW 23:08:10 77° NW 23:15:06 10° NE
Spot 2 4.2 23:06:51 41° SE 23:08:10 64° ENE 23:12:17 10° N
ATLAS 3B R/B 3.9 23:01:08 10° WSW 23:08:14 49° NNW 23:15:47 10° NE
Cosmos 1420 Rocket 4.0 23:05:35 27° SSW 23:08:30 82° WNW 23:13:49 10° NNE
Cosmos 1862 3.1 23:10:25 54° SSW 23:11:16 86° WNW 23:15:09 10° N
SeaSat 1 2.7 23:11:06 29° SE 23:13:31 64° NE 23:18:24 10° NNW
H-2A R/B 2.3 23:14:16 51° SSW 23:14:59 64° WSW 23:18:44 10° NNW
Cosmos 1850 Rocket 4.5 23:09:51 10° NNW 23:15:00 54° ENE 23:17:37 28° SE
Cosmos 1461 2.9 23:12:04 10° NW 23:15:48 52° SW 23:16:06 50° SW
Cosmos 1758 Rocket 3.7 23:14:35 37° SW 23:16:07 65° WNW 23:20:26 10° N
Cosmos 1933 4.0 23:12:26 10° NNW 23:16:11 43° W 23:17:08 36° SW
Cosmos 2151 3.8 23:15:32 32° ESE 23:16:17 35° E 23:20:09 10° NNE
Cosmos 1626 Rocket 4.3 23:14:21 26° SW 23:16:19 45° WNW 23:20:29 10° N
Cosmos 1809 Rocket 4.4 23:10:28 10° NNW 23:16:40 84° W 23:19:35 34° S
GRACE-FO 1 4.4 23:16:34 64° SSE 23:17:01 76° E 23:20:39 10° N
GRACE-FO 2 4.4 23:16:58 64° SSE 23:17:25 77° E 23:21:03 10° N
Cosmos 2221 2.6 23:13:26 10° N 23:17:42 67° ENE 23:18:49 46° SE
PSLV R/B 4.2 23:13:33 10° NNE 23:17:49 44° E 23:18:48 38° SE
ARIANE 5 R/B 3.9 23:16:57 25° SW 23:18:32 32° W 23:22:34 10° NNW
Cosmos 2297 Rocket 4.0 23:15:16 10° NNW 23:20:02 27° NE 23:24:49 10° E
Cosmos 1452 Rocket 4.3 23:21:54 32° SE 23:23:10 36° ESE 23:27:57 10° NE
Cosmos 2056 Rocket 3.6 23:21:02 29° SSW 23:23:44 77° WNW 23:28:57 10° NNE
SL-8 R/B 3.5 23:20:48 10° W 23:25:36 73° S 23:30:24 10° E
Lacrosse 5 rocket 1.8 23:21:53 10° WSW 23:25:36 56° NNW 23:29:30 10° NE
MINOTAUR 4 R/B 4.1 23:23:18 10° N 23:25:56 50° WNW 23:25:56 50° WNW
Meteor 1-26 Rocket 4.4 23:21:16 10° NNW 23:26:49 64° W 23:29:15 34° SSW
Cosmos 1378 4.5 23:25:58 10° NW 23:28:33 23° W 23:28:47 22° W
SL-27 R/B 3.3 23:26:28 10° NW 23:28:24 30° WNW 23:28:24 30° WNW
ATLAS CENTAUR R/B 4.2 23:28:31 21° ESE 23:29:23 22° ESE 23:34:54 10° ENE
ALOS 2 2.8 23:29:16 44° SSW 23:30:25 61° WSW 23:34:47 10° NNW
Cosmos 2263 4.3 23:29:22 25° SW 23:32:48 76° WNW 23:38:36 10° NNE
Spot 4 4.5 23:31:16 34° SW 23:32:52 45° W 23:37:32 10° NNW
Cosmos 1340 Rocket 2.9 23:33:57 10° N 23:37:51 64° ENE 23:38:36 51° SE
Meteor 2-21 4.5 23:33:13 10° NNW 23:39:24 75° W 23:42:09 35° S
NOSS 3-2 (C) 4.3 23:33:58 10° NW 23:41:03 65° NE 23:49:32 10° ESE
USA 59 Rocket 0.4 23:42:38 31° E 23:42:38 31° E 23:44:32 10° NE
Okean 1-7 Rocket 4.4 23:40:09 28° SW 23:41:54 42° WNW 23:46:06 10° N
Cosmos 1666 3.3 23:48:24 35° W 23:48:54 37° WNW 23:52:07 10° N
Cosmos 1842 Rocket 3.8 23:46:02 10° N 23:50:28 61° ENE 23:51:48 41° SE
Cosmos 1459 Rocket 4.0 23:50:37 35° S 23:53:28 81° E 23:59:47 10° N
Cosmos 1076 Rocket 3.8 23:52:47 45° SE 23:53:43 55° E 23:57:59 10° NNE
